This is the latest recevied weather packets stored in our database for station/object KF7MJQ-10. If no packets are shown the sender has not sent any weather packets the latest 10 day(s).
| Time | Temp. | Humidity | Pressure | Rain* | Wind** | Luminosity | Snow |
|---|---|---|---|---|---|---|---|
| 1778283326 | 13.33° C | 1% | 1022.5 hPa | 0 mm | - | - | - |
| 1778280659 | 15° C | 1% | 1022.6 hPa | 0 mm | - | - | - |
| 1778279738 | 15° C | 20% | 1022.5 hPa | 0 mm | - | - | - |
| 1778277912 | 14.44° C | 34% | 1022.5 hPa | 0 mm | - | - | - |
| 1778277611 | 15° C | 34% | 1022.5 hPa | 0 mm | - | - | - |
| 1778277309 | 14.44° C | 36% | 1022.4 hPa | 0 mm | - | - | - |
| 1778274630 | 13.89° C | 46% | 1022.1 hPa | 0 mm | - | - | - |
| 1778273421 | 14.44° C | 47% | 1022 hPa | 0 mm | - | - | - |
| 1778271957 | 13.89° C | 48% | 1021.7 hPa | 0 mm | - | - | - |
| 1778270733 | 13.89° C | 48% | 1021.6 hPa | 0 mm | - | - | - |
| 1778270133 | 13.89° C | 50% | 1021.6 hPa | 0 mm | - | - | - |
| 1778268907 | 14.44° C | 49% | 1021.4 hPa | 0 mm | - | - | - |
| 1778267459 | 13.89° C | 48% | 1021.2 hPa | 0 mm | - | - | - |
| 1778266538 | 13.33° C | 46% | 1021.1 hPa | 0 mm | - | - | - |
| 1778264713 | 13.33° C | 49% | 1021 hPa | 0 mm | - | - | - |
| 1778264414 | 13.33° C | 49% | 1021 hPa | 0 mm | - | - | - |
| 1778263259 | 13.33° C | 46% | 1020.9 hPa | 0 mm | - | - | - |
| 1778261121 | 13.33° C | 36% | 1020.8 hPa | 0 mm | - | - | - |
| 1778259905 | 12.78° C | 36% | 1020.5 hPa | 0 mm | - | - | - |
| 1778257249 | 11.67° C | 42% | 1020.4 hPa | 0 mm | - | - | - |
| 1778255744 | 11.67° C | 44% | 1020.1 hPa | 0 mm | - | - | - |
| 1778254839 | 11.67° C | 43% | 1020.1 hPa | 0 mm | - | - | - |
| 1778252717 | 12.22° C | 28% | 1019.5 hPa | 0 mm | - | - | - |
| 1778251812 | - | - | 1019.3 hPa | 0 mm | - | - | - |
| 1778251506 | - | - | 1019.2 hPa | 0 mm | - | - | - |
* Rain latest hour (hover to see other rain measurements)
** Current wind speed in m/s (hover to see current wind gust speed)